Regional Weather Roundup
Issued by NWS

Home | Current Version | Previous Version | Graphics & Text | Print | Product List | Glossary On
Versions: 1 2 3 4 5 6 7 8 9 10 11 12 13 14 15 16 17 18 19 20 21 22 23 24 25 26 27 28 29 30 31 32 33 34 35 36 37 38 39 40 41 42 43 44 45 46 47 48 49 50
000
ASUS43 KOAX 141802
RWRNE

WEATHER ROUNDUP FOR NEBRASKA
NATIONAL WEATHER SERVICE OMAHA NE
1200 PM CST SUN FEB 14 2016

NOTES: SATELLITE DATA IS BEING USED TO AUGMENT CLOUD COVER ABOVE
       12000 FEET.
       "FAIR" INDICATES FEW OR NO CLOUDS BELOW 12,000 FEET WITH NO
       SIGNIFICANT WEATHER AND/OR OBSTRUCTIONS TO VISIBILITY.

  * THESE STATIONS DO NOT REPORT WEATHER SUCH AS RAIN...SNOW OR FOG.

NEZ001>004-019>022-054>056-141900-
NEBRASKA PANHANDLE

CITY           SKY/WX    TMP DP  RH WIND       PRES   REMARKS
SCOTTSBLUFF    MOSUNNY   49  24  37 W20G29    29.85F
6HR MIN TEMP:  25; 6HR MAX TEMP:  49;

ALLIANCE       CLOUDY    42  24  49 W8        29.85F
6HR MIN TEMP:  27; 6HR MAX TEMP:  42;

CHADRON        CLOUDY    39  26  59 SW9       29.84F WCI  33
6HR MIN TEMP:  26; 6HR MAX TEMP:  39;

SIDNEY         CLOUDY    42  25  50 SW14      29.89F
6HR MIN TEMP:  26; 6HR MAX TEMP:  44;

$$

NEZ057>060-069>072-079>082-141900-
SOUTHWEST NEBRASKA

CITY           SKY/WX    TMP DP  RH WIND       PRES   REMARKS
NORTH PLATTE   CLOUDY    45  27  49 W12       29.87S
6HR MIN TEMP:  27; 6HR MAX TEMP:  45;

IMPERIAL       CLOUDY    42  27  55 W14       29.92S
6HR MIN TEMP:  30; 6HR MAX TEMP:  42;

MCCOOK         CLOUDY    43  28  55 W14       29.91S
6HR MIN TEMP:  29; 6HR MAX TEMP:  43;

$$

NEZ005>010-023>029-035>040-094-141900-
NORTH CENTRAL NEBRASKA

CITY           SKY/WX    TMP DP  RH WIND       PRES   REMARKS
VALENTINE      MOSUNNY   44  27  51 NW13      29.81F
6HR MIN TEMP:  25; 6HR MAX TEMP:  45;

BROKEN BOW     MOSUNNY   47  29  49 NW13      29.84S
6HR MIN TEMP:  33; 6HR MAX TEMP:  47;

ORD            MOSUNNY   43  31  62 NW12      29.82F
6HR MIN TEMP:  36; 6HR MAX TEMP:  43;

$$

NEZ041-046>049-061>064-073>077-083>087-141900-
SOUTH CENTRAL NEBRASKA

CITY           SKY/WX    TMP DP  RH WIND       PRES   REMARKS
GRAND ISLAND   SUNNY     41  30  65 W10       29.85F
6HR MIN TEMP:  26; 6HR MAX TEMP:  42;

HASTINGS       SUNNY     42  29  59 W8        29.86S
6HR MIN TEMP:  20; 6HR MAX TEMP:  42;

KEARNEY *      SUNNY     45  28  53 NW9       29.87S
$$

NEZ011>018-030>034-042>045-141900-
NORTHEAST NEBRASKA

CITY           SKY/WX    TMP DP  RH WIND       PRES   REMARKS
NORFOLK        CLOUDY    35  29  78 NW10      29.80F WCI  27
6HR MIN TEMP:  21; 6HR MAX TEMP:  35; 6HR PCP:  0.02;

COLUMBUS *     CLOUDY    36  25  64 NW7       29.84S WCI  30
TEKAMAH        CLOUDY    26  18  71 CALM      29.85F
6HR MIN TEMP:  19; 6HR MAX TEMP:  26; 6HR PCP: TRACE;

$$

NEZ050>053-065>068-078-088>093-141900-
SOUTHEAST NEBRASKA

CITY           SKY/WX    TMP DP  RH WIND       PRES   REMARKS
LINCOLN        CLOUDY    37  28  70 S5        29.85F WCI  33
6HR MIN TEMP:  22; 6HR MAX TEMP:  37; 6HR PCP: TRACE;

OMAHA EPPLEY   CLOUDY    32  19  58 CALM      29.84F
6HR MIN TEMP:  22; 6HR MAX TEMP:  32;

FALLS CITY     PTSUNNY   42  22  44 W10       29.88F
6HR MIN TEMP:  23; 6HR MAX TEMP:  42;

$$

NEZ044-045-051>053-067-141900-
OMAHA AREA

CITY           SKY/WX    TMP DP  RH WIND       PRES   REMARKS
OMAHA EPPLEY   CLOUDY    32  19  58 CALM      29.84F
6HR MIN TEMP:  22; 6HR MAX TEMP:  32;

OFFUTT AFB     CLOUDY    35  23  61 W6        29.83F WCI  30
$$



USA.gov is the U.S. government's official web portal to all federal, state and local government web resources and services.